Regional Weather Roundup
Issued by NWS

Home | Current Version | Previous Version | Text Only | Print | Product List | Glossary Off
Versions: 1 2 3 4 5 6 7 8 9 10 11 12 13 14 15 16 17 18 19 20 21 22 23 24 25 26 27 28 29 30 31 32 33 34 35 36 37 38 39 40 41 42 43 44 45 46 47 48 49 50

000
ASUS43 KMPX 280901
RWRMN
WEATHER ROUNDUP FOR MINNESOTA
NATIONAL WEATHER SERVICE TWIN CITIES/CHANHASSEN MN
400 AM CDT SUN AUG 28 2016


NOTE: "FAIR" INDICATES FEW OR NO CLOUDS BELOW 12,000 FEET WITH NO
SIGNIFICANT WEATHER AND/OR OBSTRUCTIONS TO VISIBILITY. N/A MEANS
CURRENT SKY AND/OR WEATHER CONDITIONS ARE NOT AVAILABLE.

MNZ060>063-068>070-281000-
   Twin Cities Metro

CITY           SKY/WX    TMP DP  RH WIND       PRES   REMARKS
TWIN CITIES    CLEAR     62  60  93 SE6       30.10R
ST PAUL        CLOUDY    61  61 100 CALM      30.11R FOG
CRYSTAL        FOG       57  55  93 CALM      30.09R VSB 3/4
BLAINE         FOG       63  63 100 CALM      30.10R VSB 1/4
LAKEVILLE      FOG       55  55 100 CALM      30.10S VSB 1/2
EDEN PRAIRIE   CLEAR     61  59  93 NE3       30.09R FOG
LAKEVILLE      FOG       55  55 100 CALM      30.10S VSB 1/2
SOUTH ST PAUL  FOG       61  61  99 CALM      30.10S VSB 1/4
LAKE ELMO      FOG       57  57 100 CALM      30.11S VSB<1/4
$$
MNZ001>005-007-008-013>017-022>024-027-028-281000-
   Northwest Minnesota

CITY           SKY/WX    TMP DP  RH WIND       PRES   REMARKS
BEMIDJI        FOG       55  55 100 SE5       30.05R VSB 1
HALLOCK        CLEAR     55  54  94 SE6       29.97S
ROSEAU         CLOUDY    54  48  82 CALM      30.01S
WARROAD        CLEAR     54  48  82 SE3       30.03R
THIEF RVR FALL CLEAR     52  52 100 SE7       30.01F
CROOKSTON      CLEAR     55  54  94 SE7       29.99S
FOSSTON        CLEAR     54  52  94 SE6       30.02S
DETROIT LAKES  CLEAR     59  59 100 SE5       30.04S
MOORHEAD       CLEAR     61  57  88 SE9       30.00S
PARK RAPIDS    FOG       60  58  92 S10       30.07R VSB 1
MAHNOMEN       FAIR      58  56  96 SE8       30.02R
$$
MNZ006-009>011-018-025>026-281000-
   North Central Minnesota

CITY           SKY/WX    TMP DP  RH WIND       PRES   REMARKS
BAUDETTE       FOG       53  53 100 SE5       30.03S VSB 1/4
FLAG ISLAND    MOCLDY    63  61  94 CALM      30.01S FOG
INTL FALLS     FOG       54  54 100 SW5       30.06S VSB 1
WASKISH          N/A     57  55  94 CALM      30.04F FOG
BIG FORK       CLOUDY    57  57 100 S6        30.07F FOG
LONGVILLE      CLOUDY    59  59 100 S5        30.07R
GRAND RAPIDS   FOG       58  57  97 S5        30.10S VSB 1/2
ORR            MOCLDY    52  48  87 CALM      30.06S
COOK           MOCLDY    46  46 100 CALM      30.09S
WALKER         CLOUDY    59  58  96 CALM      30.05S
$$
MNZ012-019>021-037-281000-
   Northeast Minnesota

CITY           SKY/WX    TMP DP  RH WIND       PRES   REMARKS
DULUTH         FOG       55  55 100 W3        30.10S VSB 3/4
ELY            MOCLDY    54  52  94 SW3       30.10R
HIBBING        FOG       52  52 100 CALM      30.09F VSB 1/2
EVELETH        MOCLDY    52  51  98 CALM      30.10F FOG
DULUTH HARBOR  FOG       59  57  94 CALM      30.10S VSB 1/4
TWO HARBORS    HAZE      57  54  88 CALM      30.08S VSB 1/2
SILVER BAY     CLEAR     57  55  94 CALM      30.08S FOG
G MARAIS ARPRT CLOUDY    54  52  94 W3        30.12R FOG
$$
MNZ029>031-032-039>041-046>048-054>057-064-281000-
   West Central Minnesota

CITY           SKY/WX    TMP DP  RH WIND       PRES   REMARKS
FERGUS FALLS   CLOUDY    63  63 100 S9        30.05R
WHEATON        CLOUDY    64  63  94 SE10      30.04R
MORRIS         CLOUDY    63  61  94 SE7       30.06R
ALEXANDRIA     CLOUDY    59  59 100 SE8       30.08R FOG
ELBOW LAKE     FAIR      62  60  94 S13       30.06R
WADENA         CLOUDY    57  57 100 SE7       30.05R VSB 1
GLENWOOD       FOG       57  57 100 SE5       30.08R VSB 3/4
APPLETON       TSTM      64  61  88 CALM      30.05R
BENSON         CLOUDY    63  57  82 S6        30.07R THUNDER
ORTONVILLE     TSTM      63  59  88 S15       30.05S
MADISON        CLOUDY    64  63  94 NW22G28   30.06R THUNDER
WILLMAR        FAIR      61  61 100 E5        30.08S
$$
MNZ033>034-036-042>043-049>051-058-059-281000-
   Central Minnesota

CITY           SKY/WX    TMP DP  RH WIND       PRES   REMARKS
ST CLOUD       FOG       60  60 100 SE5       30.09R VSB 1/4
SAUK CENTRE    FOG       59  59 100 SE6       30.09R VSB 1/4
PAYNESVILLE    CLOUDY    61  61 100 SE3       30.09R FOG
AITKIN         FOG       55  52  88 CALM      30.08R VSB 1/4
PINE RIVER     CLOUDY    61  61 100 S6        30.11R
BRAINERD       CLOUDY    59  58  96 S8        30.09R FOG
STAPLES        FOG       57  57 100 SE5       30.07S VSB 3/4
LONG PRAIRIE   LGT RAIN  59  59 100 E7        30.09R VSB 1/2
LITTLE FALLS   FOG       59  57  94 SE5       30.09S VSB 1/2
LITCHFIELD     CLOUDY    59  59 100 CALM      30.09R FOG
BUFFALO        FOG       59  57  95 CALM      30.11R VSB 1/4
MAPLE LAKE     FOG       62  61  98 CALM      30.10R VSB 1/2
HUTCHINSON     FOG       59  59 100 CALM      30.10R VSB 1/4
$$
MNZ037-044-045-052-053-281000-
   East Central Minnesota

CITY           SKY/WX    TMP DP  RH WIND       PRES   REMARKS
PRINCETON      FOG       63  61  94 E3        30.10R VSB 1/4
MORA           CLOUDY    59  57  94 CALM      30.13R
CAMBRIDGE      FOG       63  59  88 SE3       30.09R VSB 1/2
RUSH CITY      LGT RAIN  61  60  97 CALM      30.11S
MOOSE LAKE     CLOUDY    59  57  94 SW3       30.08S
HINCKLEY       CLOUDY    61  61 100 S3        30.11R
CLOQUET        CLOUDY    61  57  88 CALM      30.10S
MCGREGOR       CLOUDY    57  55  94 S3        30.10R VSB 1/2
$$
MNZ071>073-080-081-089-090-097-098-281000-
   Southwest Minnesota

CITY           SKY/WX    TMP DP  RH WIND       PRES   REMARKS
MONTEVIDEO     TSTM      63  63 100 S8        30.06F
GRANITE FALLS  CLOUDY    63  62  94 E5        30.07S
CANBY          CLOUDY    64  62  94 SE6       30.05R
MARSHALL       CLOUDY    64  62  93 SE10      30.05F
REDWOOD FALLS  PTCLDY    62  59  90 SE5       30.06R
OLIVIA         CLOUDY    59  57  94 SE5       30.06F
WINDOM         CLEAR     64  63  94 SE3       30.08R
WORTHINGTON    CLEAR     62  61  96 S5        30.08R
JACKSON          N/A     64  61  88 SE7       30.10R
TRACY          CLEAR     62  61  96 S7        30.06F FOG
SLAYTON        CLEAR     57  57 100 SE6       30.08R
$$
MNZ065>067-074>077-082>085-091>093-281000-
   South Central Minnesota

CITY           SKY/WX    TMP DP  RH WIND       PRES   REMARKS
MANKATO        CLEAR     61  59  94 SE7       30.09R
NEW ULM          N/A     61  61 100 NE3       30.08R
ST JAMES       CLEAR     57  57 100 SE5       30.09R FOG
FAIRMONT       FOG       58  58 100 S5        30.09S VSB 3/4
GLENCOE        FOG       60  60 100 CALM      30.09R VSB 3/4
FARIBAULT      FOG       55  55 100 CALM      30.10S VSB 1/2
OWATONNA       CLEAR     64  61  88 SE6       30.09F
WASECA         CLEAR     59  59 100 CALM      30.11S FOG
ALBERT LEA     FOG       63  63 100 S3        30.10F VSB 1/4
$$
MNZ078>079-086>088-094>096-281000-
   Southeast Minnesota

CITY           SKY/WX    TMP DP  RH WIND       PRES   REMARKS
ROCHESTER      FOG       60  60 100 S6        30.12S VSB 1/4
RED WING       FOG       61  61 100 CALM      30.09S VSB 1/4
DODGE CENTER   FOG       59  57  94 S3        30.11F VSB 3/4
WINONA         FOG       63  63 100 CALM      30.12S VSB 1/4
AUSTIN         FOG       63  61  94 CALM      30.11S VSB 1/4
PRESTON          N/A     62  61  96 S5        30.13F FOG
$$
ABBREVIATIONS USED IN REMARKS
   TC - TEMPERATURES IN CELSIUS
  WCI - WIND CHILL INDEX
   HX - HEAT INDEX
  VSB - VISIBILITY
$$




USA.gov is the U.S. government's official web portal to all federal, state and local government web resources and services.